Regional Weather Roundup
Issued by NWS

Home | Current Version | Previous Version | Text Only | Print | Product List | Glossary Off
Versions: 1 2 3 4 5 6 7 8 9 10 11 12 13 14 15 16 17 18 19 20 21 22 23 24 25 26 27 28

000
ASUS45 KTFX 262110
RWRMT
MONTANA REGIONAL WEATHER ROUNDUP
NATIONAL WEATHER SERVICE GREAT FALLS MT
300 PM MDT FRI MAY 26 2017

NOTE: "FAIR" INDICATES FEW OR NO CLOUDS BELOW 12000 FEET WITH NO
SIGNIFICANT WEATHER AND/OR OBSTRUCTIONS TO VISIBILITY.

MTZ001>007-043-262200-
WEST OF THE DIVIDE

CITY           SKY/WX    TMP DP  RH WIND       PRES   REMARKS
KALISPELL      PTSUNNY   66  35  31 SW8       29.90F
MISSOULA       MOSUNNY   67  40  37 W15G22    29.92S
BUTTE          CLOUDY    57  27  31 NW14      29.94R
MULLAN PASS    PTSUNNY   55  30  38 VRB3      30.00S
ANACONDA         N/A     59  28  31 N13G18    29.93S
DEER LODGE       N/A     59  28  31 CALM      29.96S
EUREKA           N/A     66  36  32 W9        29.91S
HAMILTON         N/A     64  30  27 N7        29.91S
PLAINS           N/A     69  42  37 CALM      29.92
RONAN            N/A     66  35  31 W1        29.98S
THOMPSON FALLS   N/A     70  42  36 W3        29.94
$$

MTZ008-052>055-262200-
SOUTHWEST MONTANA

CITY           SKY/WX    TMP DP  RH WIND       PRES   REMARKS
BOZEMAN        CLOUDY    59  38  45 NW8       29.91R
DILLON         CLOUDY    60  26  27 N10       29.90S
ENNIS          MOSUNNY   57  30  35 N14G21    29.95S
THREE FORKS      N/A     64  31  29 N5        29.91S
$$

MTZ009-010-012-014-046-048-049-054-262200-
EAST SLOPES AND CENTRAL MONTANA

CITY           SKY/WX    TMP DP  RH WIND       PRES   REMARKS
CUT BANK       MOSUNNY   64  31  28 N9G21     29.90S
GREAT FALLS    CLOUDY    60  34  37 SE5       29.91F
MALMSTROM AFB  MOSUNNY   61  38  42 W7        29.92S
HELENA         MOSUNNY   66  30  26 N6        29.92S
CHOTEAU          N/A     64  34  32 NE12      29.93S
CONRAD           N/A     63  47  55 W2        29.94S
$$

MTZ011-013-016-021-045-047-050-051-262200-
NORTH CENTRAL MONTANA

CITY           SKY/WX    TMP DP  RH WIND       PRES   REMARKS
HAVRE          CLOUDY    70  31  23 W12       29.85F
LEWISTOWN      CLOUDY    59  34  39 W9        29.93F
N BAR RANCH      N/A     59  32  36 NW15      29.95R
CHINOOK          N/A     63  37  39 SW9       29.85S
FORT BENTON      N/A     64  32  29 CALM      29.90S
$$

MTZ017>020-022>027-061-062-262200-
NORTHEAST MONTANA

CITY           SKY/WX    TMP DP  RH WIND       PRES   REMARKS
GLASGOW        CLOUDY    68  28  22 W15       29.82R
JORDAN           N/A     66  32  28 W14G21    29.85F
SIDNEY         MOSUNNY   67  32  27 NW22G30   29.79S
WOLF POINT     CLOUDY    67  31  26 NW12G23   29.80S
MALTA          PTSUNNY   57  45  62 SW6G13    29.85R
PLENTYWOOD       N/A     64  30  27 W22       29.75R
POPLAR           N/A     66  32  28 NW12G20   29.80R
SCOBEY           N/A     63  32  31 NW17      29.80R
$$

MTZ028>42-056>058-262200-
SOUTHCENTRAL AND SOUTHEAST MONTANA

CITY           SKY/WX    TMP DP  RH WIND       PRES   REMARKS
BAKER          CLOUDY    65  34  31 NW17G23   29.86S
BILLINGS       CLOUDY    62  32  32 VRB5      29.91S
LIVINGSTON     CLOUDY    60  35  39 NE15      29.91S
MILES CITY     CLOUDY    67  27  22 NW16      29.86R
BIG TIMBER     CLOUDY    57  34  41 VRB5      29.95S
EKALAKA          N/A     61  34  36 NW14      29.89R
FORSYTH          N/A     64  30  27 W8        29.87S
LAUREL           N/A     60  31  33 NE3       29.92S
ROUNDUP          N/A     64  29  27 NW10      29.83S
$$

REGIONAL REPORTS...DAKOTAS

CITY           SKY/WX    TMP DP  RH WIND       PRES   REMARKS
WILLISTON      CLOUDY    68  33  27 NW21G32   29.77S
MINOT          CLOUDY    68  41  37 W20G28    29.72S
DICKINSON      PTSUNNY   67  32  27 W20G30    29.80S
BEACH          CLOUDY    63  34  34 NW16G22   29.87S
CROSBY         PTSUNNY   64  34  32 NW16G25   29.72F
TIOGA          CLOUDY    63  32  31 NW24G30   29.76S
WATFORD CITY     N/A     66  36  32 NW20G26   29.76S
BISMARCK       CLOUDY    66  41  40 NW12      29.79R
GRAND FORKS    PTSUNNY   70  46  42 W17       29.69S
FARGO          MOSUNNY   69  43  38 W17G24    29.72R
BUFFALO SD       N/A     65  36  34 W20       29.81S
RAPID CITY     CLOUDY    63  36  36 N6        29.90R
$$

REGIONAL REPORTS...WYOMING/IDAHO/WASHINGTON

CITY           SKY/WX    TMP DP  RH WIND       PRES   REMARKS
GILLETTE       CLOUDY    57  37  47 N5        29.92S
SHERIDAN       CLOUDY    54  40  59 SW7       29.93R
BUFFALO WY     LGT RAIN  51  36  56 SE8       29.96R
CODY           LGT RAIN  44  37  76 W6        29.98R
YELLOWSTONE LA   N/A     32  32 100 CALM      30.01R
IDAHO FALLS    CLOUDY    44  41  89 N8        29.97R
SALMON         MOSUNNY   63  32  31 N3        29.88R
BOISE          PTSUNNY   67  39  35 NW12      29.91R
SPOKANE        MOSUNNY   71  33  24 N7        29.94S
$$

REGIONAL REPORTS...ALBERTA

CITY           SKY/WX    TMP DP  RH WIND       PRES   REMARKS
EDMONTON       PTSUNNY   70  43  37 NW7       29.73F
CALGARY        PTSUNNY   64  30  27 NW13G20   29.85F
LETHBRIDGE     MOSUNNY   66  36  32 W8G20     29.86F
MEDICINE HAT   LGT RAIN  54  45  71 NE16G31   29.85R
WATERTON GATE    N/A     59  32  36 E6          N/A
CARDSTON         N/A     64  32  29 NW5         N/A
ONEFOUR          N/A     61  34  36 NW17G23     N/A
$$

REGIONAL REPORTS...SASKATCHEWAN

CITY           SKY/WX    TMP DP  RH WIND       PRES   REMARKS
SWIFT CURRENT  CLOUDY    54  45  71 W8        29.78F
REGINA         PTSUNNY   66  36  32 NW29G36   29.67S
SASKATOON      MOSUNNY   63  36  36 NW23G31   29.66S
CYPRESS HILLS    N/A     52  41  66 W8          N/A
VAL MARIE        N/A     61  34  36 N9          N/A
ROCKGLEN         N/A     59  36  41 NW13G18     N/A
ASSINIBOIA       N/A     68  39  34 NW15G23     N/A
$$




USA.gov is the U.S. government's official web portal to all federal, state and local government web resources and services.